Tracking 33197 objects as of 18-Feb-2026
HD Live streaming from Space Station
objects crossing your sky now

STARLINK-5859

Track STARLINK-5859 now!
10-day predictions
STARLINK-5859 is classified as:


NORAD ID: 55915
Int'l Code: 2023-037B
Perigee: 577.2 km
Apogee: 581.1 km
Inclination: 70.0 °
Period: 96.1 minutes
Semi major axis: 6950 km
RCS: Unknown
Launch date: March 17, 2023
Source: United States (US)
Launch site: AIR FORCE WESTERN TEST RANGE (AFWTR)
Your satellite tracking list
Your tracking list is empty




NASA's NSSDC Master Catalog

Two Line Element Set (TLE):
1 55915U 23037B   26049.24729291  .00002936  00000-0  25370-3 0  9997
2 55915  70.0009 353.5317 0002824 264.4928  95.5909 14.98339198161269
Source of the keplerian elements: AFSPC